Lid_Strength_Index
-2 -2 -0 1 1 2 2 1 2 1 2 3 2 2 1 1 1 3 5 2 1 -1 -0 2 3 2 2 4 3 4 10 12 11 10 9 7 7 6 6 7 6 5 5 4 2
-2 -2 -2 -1 -0 1 1 1 1 1 1 2 3 2 2 1 4 6 1 -1 -1 -1 2 3 5 5 6 5 5 7 11 10 7 7 8 7 7 7 8 7 7 6 4 3 2
-1 -1 -1 -2 -1 -1 -0 1 0 -1 1 1 2 2 2 3 8 7 -0 -0 -0 -0 2 3 3 5 7 6 7 7 10 7 7 6 6 7 8 7 8 8 7 6 5 4 4
-1 -1 -1 -1 -1 -2 -1 -1 -2 -0 -1 -0 1 2 3 5 14 4 0 0 0 1 3 4 5 7 9 9 7 9 8 7 6 6 6 7 6 7 8 8 6 6 4 4 4
-1 -1 -1 -1 -1 -1 -2 -1 -2 -2 -1 -1 -1 0 3 9 9 3 1 0 1 2 4 5 6 7 9 9 8 9 8 7 7 6 6 6 7 7 7 5 5 5 5 4 4
-1 -1 -1 -1 -1 -1 -1 -2 -2 -1 -2 -2 -1 -2 4 10 4 4 2 2 2 3 4 4 5 5 7 7 9 7 7 8 7 7 6 7 7 7 6 4 5 4 6 6 4
-1 -1 -1 -1 -1 -1 -1 -1 -2 -1 -2 -1 -1 -0 5 7 1 1 2 2 1 2 4 3 3 5 6 8 6 7 9 8 8 8 8 7 9 9 6 5 5 5 5 4 4
-1 -1 -1 -1 -1 -1 -1 -1 -1 -1 -1 -2 -2 1 6 1 1 1 1 2 0 0 2 1 2 4 6 5 7 9 9 13 10 8 7 8 12 9 7 7 7 5 5 5 4
-1 -1 -1 -1 -1 -1 -1 -1 -1 -1 -1 -0 2 3 7 -0 3 1 1 3 2 1 1 1 3 6 7 10 12 11 14 13 11 8 8 9 12 8 7 8 9 8 7 6 5
-1 -1 -1 -1 -1 -1 -1 -1 -1 -1 0 2 3 7 6 5 3 2 1 1 3 3 4 5 7 9 10 11 17 14 14 12 12 9 9 10 11 8 7 7 8 8 7 7 6
-1 -1 -1 -1 -1 -1 -1 1 4 5 3 8 8 8 6 4 2 3 2 3 3 5 10 7 11 13 11 10 9 10 12 13 10 8 10 11 11 10 8 8 8 8 7 7 6
-1 -1 -1 -1 -1 -1 -0 4 4 3 8 4 4 6 4 4 7 4 2 6 7 10 8 10 13 9 8 8 10 11 12 13 10 9 11 11 12 10 9 9 9 8 7 6 6
-1 -1 -1 -1 -1 -0 2 3 1 2 8 7 5 5 5 5 8 7 5 6 8 10 10 12 10 8 9 10 11 11 12 12 12 10 10 12 14 12 10 10 8 8 7 7 6
-1 -1 -1 -1 1 1 3 0 1 2 12 11 8 6 4 4 8 4 4 7 9 11 9 10 7 9 10 11 10 13 9 10 11 12 16 13 21 15 13 12 11 9 9 8 7
-1 -1 -1 -1 1 3 2 -0 1 4 20 9 8 3 4 7 6 6 3 5 10 10 11 13 10 10 11 10 9 11 9 10 11 13 14 14 18 17 12 13 11 10 9 9 8
-1 -1 -1 0 1 1 -0 1 4 13 19 13 8 9 9 7 7 6 6 5 6 8 8 10 9 10 10 9 9 9 10 11 11 13 19 15 16 19 16 13 12 11 10 9 9
-0 -1 -0 -0 4 -1 0 4 14 18 11 13 12 9 10 11 9 9 10 11 12 14 14 11 11 10 9 11 10 10 13 20 21 20 22 15 16 17 13 12 12 11 10 8 8
-0 -1 0 0 -1 -0 2 10 17 14 13 9 10 10 12 10 10 10 11 13 9 11 13 15 17 10 8 10 12 12 12 17 22 21 19 15 19 17 12 10 10 9 9 7 8
-0 1 2 2 0 0 7 15 15 12 10 11 10 13 13 11 11 11 11 12 10 10 14 14 14 10 9 8 9 12 14 10 16 18 20 17 16 12 11 11 9 9 8 8 9
2 3 4 1 1 3 10 13 11 9 8 9 14 12 15 13 13 13 12 10 10 9 8 12 15 11 10 8 9 10 9 15 15 23 24 20 19 18 14 12 10 10 10 9 10
3 6 3 1 2 8 13 12 11 7 7 10 11 13 12 13 12 13 12 10 9 9 8 11 13 14 11 12 13 12 13 12 12 15 19 22 20 14 13 11 11 11 9 10 10
4 10 2 1 9 10 12 10 8 8 7 8 9 10 11 11 13 13 12 11 8 8 11 10 12 16 14 10 9 10 12 12 16 17 16 16 18 12 11 11 10 11 10 10 9
7 7 2 3 12 12 10 10 9 10 9 9 10 9 8 11 14 11 11 7 7 8 10 10 13 18 16 12 11 12 11 11 11 12 16 18 19 11 10 11 10 11 10 9 10
7 10 7 6 7 10 11 11 11 8 9 8 9 8 10 11 10 12 11 8 7 8 7 8 12 14 17 16 12 14 12 11 11 16 17 15 16 12 10 9 9 9 9 10 10
7 9 7 11 10 9 9 10 12 12 9 9 10 10 11 13 12 12 10 9 8 7 8 9 14 12 12 12 12 12 12 12 13 13 15 15 14 13 10 9 9 9 9 9 9
8 8 7 9 8 9 9 11 12 11 10 11 11 10 10 12 11 12 10 10 11 9 9 9 15 12 14 12 12 14 12 12 12 12 12 12 12 9 8 8 9 8 9 9 9
3 3 6 8 9 10 11 10 10 9 8 8 9 10 11 10 7 7 7 7 8 9 10 11 13 16 17 13 13 16 13 12 12 11 11 14 11 8 9 9 8 8 8 9 9